Wetbulb
54.05 53.90 53.00 52.71 51.83 51.99 50.72 49.90 47.88 43.38 43.28 46.29 44.88 46.55 44.74 44.05 44.00 44.41 44.65 43.70 44.53 43.83 42.48 41.87 41.93 42.09 42.49 42.74 42.15 42.58 42.88 43.34 43.65 43.82 44.18 44.66 44.90 45.42
52.82 53.10 52.65 53.03 51.32 50.84 50.05 49.90 49.66 48.70 45.23 46.24 45.12 44.34 43.92 43.01 41.98 43.07 42.89 42.89 42.80 42.51 41.53 40.83 40.93 41.31 40.43 40.73 41.02 41.20 41.58 41.99 42.30 42.66 43.39 43.70 44.17 44.50
50.80 51.74 51.36 51.41 50.48 50.12 50.11 49.12 47.98 48.29 46.05 41.26 43.91 43.47 42.21 40.28 39.45 41.20 40.71 41.20 42.14 40.14 40.27 39.92 39.95 39.15 39.19 39.71 39.95 40.23 40.57 40.79 40.77 41.24 41.99 42.77 43.34 43.55
48.29 49.03 49.81 47.83 48.87 48.67 48.48 47.81 47.47 47.49 45.10 39.46 40.04 39.89 39.73 40.36 39.49 39.50 39.36 40.43 40.75 38.23 38.92 39.28 38.33 38.36 38.53 38.93 39.06 39.23 38.82 38.64 39.07 39.99 40.79 41.39 42.00 42.50
46.90 45.95 46.06 44.54 43.88 43.34 44.03 44.22 45.96 42.89 43.36 39.95 38.05 39.22 38.97 38.39 37.60 39.31 39.05 39.09 39.17 37.16 37.90 39.55 37.47 37.65 37.78 37.74 37.95 37.36 37.03 37.42 38.53 39.14 39.61 39.90 39.96 40.46
45.02 44.14 42.35 42.23 41.90 42.27 41.97 42.05 41.76 41.91 40.04 38.22 36.67 36.52 37.09 37.34 37.96 36.02 35.17 37.37 37.07 37.82 37.35 37.49 36.89 36.61 36.21 36.26 35.80 35.27 35.93 37.21 38.28 38.73 38.85 38.65 38.47 38.94
43.00 42.55 41.56 41.98 42.15 41.55 39.21 38.20 39.09 37.26 37.19 36.32 34.75 36.07 35.54 34.66 34.96 36.61 35.84 36.06 36.60 36.87 36.04 36.30 36.17 35.85 35.90 35.11 34.31 35.06 35.99 37.10 37.15 37.09 37.35 37.57 37.56 37.92
42.01 40.77 40.57 40.46 40.98 41.41 40.25 40.82 40.51 37.84 36.25 36.37 36.34 36.46 35.97 35.27 35.49 34.87 34.81 33.27 32.12 36.25 33.99 33.26 34.94 33.81 34.89 34.51 34.18 34.58 35.69 36.20 36.10 36.11 36.29 36.47 36.78 37.09
42.20 40.44 39.20 39.00 39.89 38.90 40.63 40.63 39.98 39.32 39.35 37.33 34.48 34.60 33.60 35.49 35.53 34.06 34.07 33.91 32.81 33.84 32.33 30.93 33.49 32.27 34.37 33.83 33.57 33.83 35.05 35.20 35.30 35.38 35.55 35.77 36.04 36.04
40.05 39.58 38.47 38.60 39.10 38.49 37.05 36.24 36.04 36.21 36.36 36.31 37.83 37.11 37.05 36.71 36.52 35.87 34.91 33.57 33.00 32.77 32.88 28.56 32.85 30.99 32.75 33.99 32.93 32.96 33.95 34.29 34.53 34.76 34.98 35.21 35.08 34.90
39.14 39.08 38.40 37.72 40.21 38.99 35.50 33.20 33.25 34.11 37.43 37.74 37.58 37.35 37.22 36.82 36.04 33.91 31.83 30.68 29.95 30.97 31.97 29.59 30.88 29.50 31.04 32.12 33.57 32.56 33.54 33.72 33.71 34.07 34.55 34.50 34.34 34.30
37.47 38.17 39.60 38.52 40.11 38.65 34.07 33.33 31.98 33.28 34.72 35.74 35.44 35.31 34.48 33.76 33.15 34.04 32.33 30.01 29.70 28.28 30.76 28.49 29.35 28.75 26.46 31.51 31.94 32.39 32.52 33.12 33.21 33.46 33.63 33.61 33.44 32.08
35.57 35.87 37.41 40.46 39.83 38.17 36.79 34.83 34.32 35.08 35.87 34.42 32.00 31.11 30.97 30.79 30.83 31.15 31.32 31.15 29.33 29.17 30.65 29.67 28.26 27.96 27.09 26.35 28.92 30.28 31.10 31.29 31.44 31.81 32.53 32.81 32.75 32.52
35.34 36.42 38.19 40.20 38.91 37.90 36.97 38.73 38.12 36.00 33.19 31.19 29.87 29.13 28.97 29.17 29.78 30.67 30.88 31.01 31.20 29.57 30.42 29.57 26.79 26.68 25.11 23.21 23.76 28.96 29.40 30.22 30.52 29.45 30.13 31.54 32.04 32.30
36.55 37.71 40.38 39.86 38.95 38.00 38.37 37.98 35.99 33.01 31.79 29.84 28.80 28.35 29.37 30.00 29.66 29.16 29.30 28.60 28.51 28.72 28.46 28.44 28.26 27.76 26.75 23.74 22.71 24.59 26.29 27.88 29.40 28.81 29.16 29.43 29.46 30.13
38.05 39.35 38.99 38.05 37.41 35.71 36.76 35.30 33.02 32.56 31.34 30.07 28.88 28.83 28.75 28.10 28.05 28.75 27.66 27.18 27.12 27.39 27.38 28.32 28.24 27.62 25.47 25.90 25.94 25.24 26.35 24.91 28.29 28.52 29.03 29.08 29.33 29.55
37.11 36.12 34.67 33.03 32.75 33.95 32.66 31.86 31.78 31.52 29.96 29.37 27.85 27.00 26.49 26.73 26.71 27.56 26.46 25.92 25.08 25.39 26.02 27.51 28.10 27.43 26.73 25.66 23.58 25.27 25.83 26.64 28.37 28.05 26.91 25.65 27.14 28.87
35.08 32.71 31.87 31.92 31.41 30.81 30.19 29.85 30.07 29.48 28.55 28.01 27.35 26.64 25.84 26.05 25.88 25.72 25.50 24.85 24.29 24.55 24.62 25.71 25.32 23.91 24.62 26.57 28.03 24.77 25.64 26.25 27.40 27.19 26.79 24.74 24.38 28.15
32.90 31.84 31.02 31.33 30.48 30.07 29.11 28.55 27.44 27.79 28.10 27.54 26.81 26.34 26.13 25.76 24.73 24.01 23.90 24.14 24.06 24.03 24.43 24.77 23.30 21.63 18.46 17.73 24.42 27.93 24.50 24.74 25.13 24.51 25.73 25.05 24.24 25.83
31.87 30.86 29.98 29.35 28.86 28.72 28.50 27.82 27.25 26.85 26.91 26.78 26.45 25.83 25.10 24.17 22.83 22.90 23.58 22.23 22.85 23.71 22.71 23.83 23.22 21.81 18.59 18.75 19.44 23.13 25.61 24.02 24.68 23.11 23.20 24.96 26.07 28.36
30.43 29.69 29.41 28.92 28.74 28.64 28.03 27.71 27.32 26.89 26.81 26.06 24.86 24.03 23.16 23.09 22.91 23.18 23.61 22.25 22.72 22.49 20.31 21.27 23.30 24.98 23.57 23.06 20.38 22.21 25.04 26.89 26.69 24.49 23.73 22.80 22.72 24.47
29.66 29.10 29.01 29.03 28.66 28.20 27.83 27.45 26.89 26.09 24.79 24.53 23.70 23.42 23.44 24.11 23.11 22.89 23.31 22.81 22.31 21.68 21.13 22.51 24.06 24.04 22.69 20.77 19.61 20.10 22.38 24.51 26.01 27.35 27.36 26.56 23.51 19.78
29.04 28.91 28.71 28.59 28.52 28.08 27.76 27.17 26.50 25.05 24.43 23.86 23.46 23.28 23.43 23.27 23.94 24.21 23.74 22.87 21.63 20.80 20.77 20.77 22.29 23.46 22.21 22.14 21.34 20.79 20.62 21.69 23.31 23.45 24.80 27.92 27.92 28.39
MSLP
1021.40 1021.70 1021.82 1022.24 1022.64 1023.02 1023.52 1023.73 1024.16 1024.96 1025.86 1026.74 1027.52 1028.07 1028.66 1029.12 1029.44 1029.42 1029.58 1030.01 1030.14 1030.35 1030.58 1030.71 1030.67 1030.63 1030.49 1030.49 1030.35 1030.27 1030.08 1029.86 1029.65 1029.22 1028.83 1028.43 1028.15 1027.75
1020.91 1021.13 1021.30 1021.84 1022.47 1023.00 1023.35 1023.52 1023.70 1024.03 1024.69 1025.88 1026.82 1027.65 1028.12 1028.64 1029.62 1029.50 1029.77 1030.12 1030.19 1030.41 1030.52 1030.81 1030.76 1030.71 1030.59 1030.55 1030.55 1030.22 1029.94 1029.74 1029.66 1029.25 1028.83 1028.61 1028.18 1027.68
1020.42 1020.77 1020.82 1021.42 1022.03 1022.46 1022.78 1023.51 1023.80 1023.83 1024.26 1026.17 1026.51 1027.36 1027.91 1028.19 1029.29 1029.57 1029.99 1029.87 1030.14 1030.52 1030.57 1030.78 1030.84 1030.74 1030.67 1030.60 1030.44 1030.10 1029.85 1029.78 1029.69 1029.31 1028.91 1028.49 1028.08 1027.52
1020.27 1020.58 1020.49 1021.15 1021.59 1021.94 1022.65 1023.22 1023.60 1023.96 1024.25 1025.39 1026.55 1027.34 1027.86 1028.07 1028.73 1029.39 1029.65 1029.79 1030.07 1030.60 1030.58 1030.57 1030.84 1030.80 1030.66 1030.49 1030.32 1030.07 1029.88 1029.77 1029.58 1029.27 1028.81 1028.24 1027.71 1027.36
1020.19 1020.41 1020.65 1020.96 1021.72 1021.89 1022.30 1023.14 1023.23 1024.01 1024.25 1024.79 1026.19 1027.15 1027.90 1028.39 1028.87 1029.29 1029.48 1029.91 1030.08 1030.59 1030.57 1030.73 1030.86 1030.70 1030.56 1030.36 1030.27 1030.12 1029.86 1029.69 1029.37 1028.96 1028.41 1027.99 1027.76 1027.55
1019.98 1020.19 1020.63 1020.98 1021.36 1021.66 1022.24 1022.99 1023.38 1023.76 1024.28 1024.95 1025.80 1026.75 1027.61 1028.29 1028.74 1029.25 1029.57 1029.67 1029.79 1030.04 1030.47 1030.59 1030.79 1030.54 1030.47 1030.35 1030.14 1030.03 1029.72 1029.40 1028.93 1028.56 1028.22 1027.93 1027.72 1027.33
1019.59 1019.88 1020.51 1020.75 1021.18 1021.30 1021.76 1022.60 1023.27 1023.89 1024.30 1024.92 1025.81 1026.27 1027.22 1028.02 1028.27 1028.66 1029.01 1029.47 1029.70 1030.24 1030.21 1030.10 1030.13 1030.17 1029.96 1030.06 1029.92 1029.76 1029.50 1028.97 1028.64 1028.48 1028.19 1027.84 1027.47 1027.01
1019.24 1019.84 1020.40 1020.86 1021.15 1021.42 1022.04 1022.40 1022.90 1023.42 1024.15 1024.77 1025.45 1025.88 1026.89 1027.56 1028.01 1028.59 1028.85 1029.31 1029.59 1030.28 1030.11 1029.82 1029.98 1029.88 1029.69 1029.70 1029.79 1029.41 1029.13 1028.73 1028.47 1028.25 1027.94 1027.62 1027.18 1026.77
1018.77 1019.83 1020.46 1020.71 1020.96 1021.58 1022.20 1022.78 1023.40 1023.84 1023.84 1024.29 1025.05 1025.80 1026.56 1027.10 1027.71 1028.24 1028.67 1029.15 1029.48 1029.98 1030.18 1029.64 1029.77 1029.48 1029.49 1029.39 1029.36 1029.11 1028.82 1028.54 1028.34 1028.01 1027.60 1027.24 1026.81 1026.37
1018.75 1019.36 1019.98 1020.69 1021.26 1021.47 1022.16 1023.25 1023.97 1024.31 1024.61 1024.83 1025.05 1025.65 1026.35 1027.16 1027.62 1027.90 1028.60 1029.27 1029.87 1030.28 1030.29 1029.81 1029.51 1029.36 1029.25 1028.93 1028.91 1028.87 1028.59 1028.34 1028.01 1027.64 1027.24 1026.79 1026.33 1025.85
1018.95 1019.47 1019.95 1020.53 1021.23 1021.81 1022.52 1023.46 1024.29 1024.90 1025.30 1025.63 1026.11 1026.62 1027.11 1027.69 1028.10 1028.56 1028.88 1029.21 1029.43 1029.87 1030.39 1030.19 1029.66 1029.61 1029.05 1028.50 1028.36 1028.45 1028.20 1027.91 1027.67 1027.33 1026.81 1026.30 1025.85 1025.37
1019.12 1019.67 1020.20 1020.48 1021.24 1021.93 1022.50 1023.19 1024.24 1025.12 1025.59 1026.37 1026.90 1027.41 1027.87 1028.50 1028.83 1028.70 1029.07 1029.15 1029.52 1029.85 1030.31 1030.43 1029.99 1030.07 1029.34 1028.28 1028.26 1028.10 1027.81 1027.55 1027.37 1026.97 1026.36 1025.87 1025.50 1024.91
1018.86 1019.52 1020.18 1020.73 1021.40 1022.14 1022.59 1023.30 1024.16 1025.32 1025.95 1026.70 1027.38 1027.95 1028.43 1028.89 1029.20 1029.50 1029.55 1029.51 1029.73 1029.87 1030.32 1030.66 1030.51 1030.26 1030.00 1029.22 1028.58 1028.26 1027.95 1027.42 1027.03 1026.57 1025.98 1025.43 1025.02 1024.62
1018.49 1019.19 1019.89 1020.66 1021.46 1022.28 1023.00 1023.73 1024.76 1025.38 1026.08 1026.89 1027.60 1028.10 1028.50 1029.06 1029.47 1029.81 1030.03 1030.13 1030.31 1030.44 1030.51 1030.67 1030.79 1030.51 1030.27 1029.89 1029.04 1028.10 1027.96 1027.47 1026.95 1026.42 1025.85 1025.11 1024.39 1023.79
1018.62 1019.06 1019.71 1020.69 1021.70 1022.71 1023.38 1024.06 1024.75 1025.46 1026.19 1026.90 1027.57 1028.27 1028.77 1029.25 1029.82 1030.13 1030.34 1030.57 1030.74 1030.69 1030.67 1030.72 1030.63 1030.49 1030.38 1030.13 1029.60 1028.81 1028.01 1027.25 1026.63 1026.15 1025.67 1024.73 1023.81 1023.17
1019.01 1019.64 1020.29 1021.13 1022.07 1022.91 1023.56 1024.31 1024.97 1025.59 1026.21 1026.84 1027.64 1028.48 1029.19 1029.64 1029.86 1030.11 1030.36 1030.63 1030.63 1030.62 1030.70 1030.69 1030.66 1030.32 1030.14 1029.81 1029.35 1028.47 1027.91 1027.33 1026.42 1025.92 1025.12 1024.40 1023.58 1023.00
1018.96 1019.80 1020.69 1021.55 1022.37 1023.10 1023.86 1024.69 1025.36 1025.84 1026.47 1027.23 1027.96 1028.63 1029.21 1029.63 1029.99 1030.34 1030.58 1030.71 1030.62 1030.54 1030.50 1030.41 1030.31 1030.30 1030.07 1029.72 1029.08 1028.25 1027.59 1026.97 1026.22 1025.39 1024.74 1023.88 1023.18 1022.30
1018.95 1019.70 1020.60 1021.43 1022.17 1023.05 1023.93 1024.78 1025.46 1026.10 1026.82 1027.52 1028.12 1028.77 1029.31 1029.66 1030.05 1030.47 1030.67 1030.71 1030.60 1030.51 1030.28 1030.16 1030.20 1029.99 1029.25 1028.30 1028.08 1027.82 1027.23 1026.57 1025.91 1025.25 1024.68 1023.68 1022.34 1021.42
1018.82 1019.84 1020.54 1021.40 1022.33 1023.21 1024.09 1024.87 1025.63 1026.33 1027.06 1027.69 1028.32 1028.94 1029.44 1029.81 1030.22 1030.52 1030.70 1030.75 1030.62 1030.44 1030.34 1030.44 1030.45 1030.20 1029.58 1028.65 1027.71 1027.28 1027.03 1026.42 1025.59 1024.92 1024.41 1023.74 1022.56 1020.95
1019.30 1019.87 1020.81 1021.77 1022.65 1023.54 1024.42 1025.15 1025.99 1026.71 1027.29 1027.94 1028.58 1029.19 1029.69 1030.03 1030.38 1030.61 1030.74 1030.81 1030.59 1030.38 1030.50 1030.42 1030.26 1030.13 1029.97 1029.32 1028.60 1027.42 1027.03 1026.18 1025.39 1024.62 1023.72 1023.04 1022.12 1020.74
1019.71 1020.43 1021.26 1022.22 1023.13 1023.98 1024.77 1025.49 1026.20 1026.88 1027.45 1028.13 1028.84 1029.37 1029.83 1030.16 1030.36 1030.52 1030.58 1030.65 1030.65 1030.62 1030.52 1030.25 1030.05 1029.97 1029.78 1029.35 1028.48 1027.22 1025.99 1025.60 1025.15 1024.52 1023.60 1022.69 1021.23 1019.68
1020.19 1020.91 1021.79 1022.58 1023.46 1024.27 1025.10 1025.88 1026.50 1027.31 1027.88 1028.38 1028.96 1029.48 1029.89 1030.14 1030.34 1030.44 1030.51 1030.59 1030.66 1030.60 1030.36 1030.07 1029.75 1029.39 1029.07 1028.67 1027.99 1027.07 1025.90 1024.99 1024.28 1023.47 1023.04 1022.52 1021.65 1020.18
1020.73 1021.34 1022.07 1022.88 1023.65 1024.48 1025.26 1026.00 1026.82 1027.57 1028.12 1028.64 1029.10 1029.50 1029.86 1030.07 1030.23 1030.34 1030.54 1030.67 1030.77 1030.58 1030.26 1029.77 1029.39 1028.99 1028.57 1028.12 1027.60 1026.80 1025.93 1025.01 1024.09 1022.96 1021.64 1021.37 1020.69 1019.84
Wind_Speed
12 13 10 8 6 6 6 8 5 6 9 9 5 9 6 6 7 6 5 7 7 6 3 2 3 4 5 6 8 9 11 12 13 14 15 15 16 18
9 13 11 7 8 6 6 7 6 6 5 5 8 9 9 7 6 6 5 5 5 5 2 2 2 3 6 7 9 10 11 11 14 14 15 17 18 18
11 12 12 12 7 7 7 7 7 7 7 3 6 8 12 10 7 6 6 5 5 2 0 2 1 4 5 8 10 11 11 12 14 15 16 17 18 18
11 13 13 8 10 8 7 10 7 7 5 10 7 8 8 9 8 8 5 4 3 3 2 2 2 4 7 9 11 11 10 12 14 15 16 16 16 18
9 9 8 9 8 6 6 6 6 5 5 7 7 7 5 6 7 6 5 4 3 1 4 7 3 6 8 9 10 9 12 14 15 14 14 13 17 20
9 8 8 10 10 9 8 8 8 7 6 7 5 8 7 7 6 6 5 4 4 3 4 4 6 8 8 8 8 10 11 13 11 12 13 16 19 20
9 8 9 9 10 12 9 8 8 5 6 7 6 7 7 7 9 5 4 3 3 2 3 4 4 4 4 5 6 11 12 9 8 13 16 17 19 21
12 11 9 13 12 14 11 12 9 10 8 5 5 8 8 6 5 6 5 4 4 2 2 4 3 4 4 4 10 10 8 7 10 15 16 18 20 21
13 10 9 7 13 11 15 14 12 9 6 5 8 7 8 9 9 7 6 4 2 3 3 3 1 5 5 6 8 7 7 10 14 16 18 19 21 21
11 11 12 13 10 13 12 11 8 7 6 4 6 7 7 8 7 5 5 4 3 2 1 3 2 6 7 7 5 6 9 14 17 18 20 22 21 21
9 11 13 13 20 20 13 12 10 8 12 15 15 16 14 12 8 6 4 4 3 3 1 2 2 7 8 6 4 7 14 16 18 20 23 22 21 22
8 8 18 15 24 22 13 13 12 10 11 11 12 13 11 9 6 2 3 3 2 2 3 3 3 4 4 4 6 8 9 14 18 21 22 21 20 11
9 9 9 24 23 20 16 10 12 11 14 11 8 7 6 6 4 4 3 2 2 1 4 2 3 3 3 5 7 9 8 10 11 12 18 20 21 20
11 9 12 24 23 20 14 19 23 16 9 8 7 6 6 5 4 4 4 3 2 2 2 4 3 4 5 7 7 7 10 10 10 10 10 16 21 21
8 15 23 24 23 16 16 21 20 8 8 7 7 6 5 5 5 4 3 2 0 1 1 2 4 5 5 7 9 11 11 10 9 8 11 11 12 12
16 15 16 15 13 11 15 14 7 8 8 7 7 6 6 5 4 2 2 1 0 1 1 1 4 5 7 8 9 10 10 7 9 10 10 11 11 11
14 11 10 9 9 8 9 8 7 8 7 7 7 6 6 5 4 2 2 1 1 1 2 2 4 7 9 11 9 8 9 9 9 11 13 11 11 11
12 11 10 10 9 9 9 9 8 9 7 7 7 6 5 4 4 2 1 1 2 2 3 4 6 7 6 7 13 8 8 9 9 11 11 12 13 12
9 9 10 10 9 9 9 8 8 7 8 7 7 6 5 4 4 2 2 1 1 3 4 5 5 6 8 9 7 8 8 10 10 10 9 10 13 15
7 9 9 9 9 9 8 8 8 7 7 7 6 6 4 4 4 3 2 1 3 4 5 5 4 5 6 7 8 10 14 10 9 11 12 10 13 26
8 8 8 8 8 8 8 7 7 7 7 7 6 5 4 4 4 3 2 2 5 4 6 6 5 11 6 7 6 9 8 16 14 11 12 12 12 10
7 8 8 8 8 8 8 7 7 7 7 6 6 5 5 4 4 3 1 2 3 5 6 6 6 5 5 7 9 12 10 9 16 19 19 16 9 9
8 8 8 8 8 8 8 7 7 7 6 6 6 5 5 4 2 1 1 3 4 5 5 6 6 5 6 7 10 9 13 13 10 13 12 17 17 23
Wind_Direction
210 211 209 209 195 188 188 186 177 185 201 184 184 193 183 173 155 173 161 133 138 130 106 30 4 352 360 349 337 329 328 327 324 323 322 323 323 319
207 205 206 203 197 191 192 201 210 212 201 165 194 178 178 174 170 176 142 147 161 145 112 346 341 1 347 339 323 325 322 320 320 322 321 317 315 313
202 208 200 195 198 193 195 209 207 204 212 140 167 175 179 167 163 178 173 188 165 149 354 291 4 347 324 324 319 318 318 321 320 319 315 313 313 314
204 209 204 187 194 194 195 205 204 202 165 161 156 170 180 178 172 186 191 191 206 159 267 227 256 304 315 318 319 316 325 321 317 311 311 311 318 324
198 194 180 168 187 176 174 193 190 167 160 146 136 157 154 168 175 200 189 200 214 175 266 212 264 308 318 319 317 321 322 316 312 310 312 324 327 317
183 177 171 186 180 163 166 170 162 157 142 135 130 161 160 173 185 190 197 204 217 217 234 270 303 309 311 310 317 322 313 315 313 320 324 326 318 313
174 177 177 172 165 164 152 151 146 140 142 140 143 146 164 167 193 184 210 183 196 245 223 235 289 307 298 296 306 322 320 313 331 335 325 321 316 313
172 168 158 155 155 149 143 142 151 151 146 137 149 165 171 171 149 175 179 196 203 164 298 288 307 298 305 310 323 320 311 316 326 329 323 318 314 311
168 160 155 156 143 135 128 118 110 99 120 126 145 155 152 168 166 162 168 189 192 115 296 273 317 301 313 307 319 313 309 319 323 321 317 316 313 313
163 160 154 153 152 139 125 113 105 94 96 102 125 139 141 147 151 147 151 140 146 123 8 270 352 304 314 306 315 309 322 325 324 319 316 313 311 312
157 160 159 148 152 142 128 119 107 94 92 98 105 109 111 116 125 135 153 177 174 169 148 307 324 314 308 310 323 310 312 319 319 315 311 310 309 311
147 150 160 155 156 151 140 136 123 130 124 115 105 99 96 96 95 84 138 168 143 189 147 298 326 343 307 312 328 321 317 310 312 310 311 309 309 308
153 155 162 161 158 154 142 138 137 133 139 130 125 124 125 117 109 95 97 129 164 194 103 306 290 305 278 303 309 308 304 305 308 307 305 309 310 308
162 159 156 158 155 152 136 142 147 144 138 141 143 145 137 132 122 123 109 97 47 284 300 245 258 289 292 301 296 313 310 305 297 306 304 312 307 305
158 160 155 151 149 141 146 155 146 144 146 149 148 141 134 122 122 123 120 87 290 259 289 271 258 273 284 281 286 289 295 303 299 300 310 307 307 309
150 148 145 142 133 141 153 144 149 149 155 145 139 130 128 141 135 122 119 56 209 135 28 256 269 286 288 281 285 288 297 297 306 302 302 301 298 301
142 138 141 137 142 151 134 138 148 145 136 134 137 142 143 144 132 109 81 46 17 345 322 294 316 296 279 277 278 278 294 294 298 311 311 306 298 295
147 151 149 149 144 141 140 148 144 139 137 138 141 145 146 147 141 125 106 311 323 331 335 342 328 321 302 265 229 275 296 298 307 308 307 305 303 300
152 152 149 147 141 137 135 137 135 135 135 136 139 140 140 137 144 152 161 221 315 337 333 328 322 323 319 316 296 292 309 304 309 304 303 298 296 297
142 140 136 132 129 131 131 131 130 135 134 136 138 139 141 148 153 160 164 14 336 324 319 301 293 310 297 303 304 297 300 289 303 304 304 299 287 288
128 122 122 124 126 127 125 127 130 136 137 138 137 141 143 156 154 155 155 293 320 313 305 305 317 311 294 291 276 296 307 308 300 301 302 299 298 299
119 121 123 124 126 126 126 126 130 134 137 139 141 145 152 153 154 164 193 309 305 307 302 301 307 308 312 313 304 305 309 309 310 307 298 278 283 299
126 126 127 127 126 128 130 132 132 142 144 144 150 151 153 163 168 181 272 282 293 298 306 310 316 315 311 309 309 307 307 309 313 320 311 308 293 290